CDT,Max TemperatureF,Mean TemperatureF,Min TemperatureF,Max Dew PointF,MeanDew PointF,Min DewpointF,Max Humidity, Mean Humidity, Min Humidity, Max Sea Level PressureIn, Mean Sea Level PressureIn, Min Sea Level PressureIn, Max VisibilityMiles, Mean VisibilityMiles, Min VisibilityMiles, Max Wind SpeedMPH, Mean Wind SpeedMPH, Max Gust SpeedMPH,PrecipitationIn, CloudCover, Events, WindDirDegrees
2012-3-1,32,26,19,28,24,19,96,90,84,29.81,29.70,29.59,10,8,2,17,7,20,0.03,8,Snow,182
2012-3-2,28,21,14,25,18,10,92,85,78,29.81,29.62,29.53,10,3,1,31,15,38,0.05,8,Snow,309
2012-3-3,14,5,-5,9,3,-7,87,77,67,29.97,29.90,29.76,10,9,2,25,13,31,T,4,Snow,335
2012-3-4,18,5,-8,12,3,-9,100,90,80,30.13,29.99,29.85,10,4,0,12,4,12,0.06,5,Fog-Snow,167
2012-3-5,33,18,3,28,19,3,92,84,75,30.09,29.87,29.65,10,8,1,28,14,35,0.03,6,Snow,165
2012-3-6,37,30,23,31,27,21,96,89,82,29.67,29.54,29.44,10,7,4,23,12,29,0.00,6,,203
2012-3-7,31,21,10,26,16,10,96,85,73,30.07,29.88,29.68,10,10,7,26,16,33,T,7,Snow,332
2012-3-8,31,18,4,25,16,1,92,75,57,30.56,30.12,29.99,10,6,0,32,12,39,0.08,6,Fog-Snow,275
2012-3-9,28,14,-1,22,10,-4,86,73,60,30.56,30.31,29.85,10,10,10,28,15,33,0.00,6,,178
2012-3-10,49,36,23,42,30,21,96,81,65,29.82,29.77,29.71,10,10,10,24,8,29,0.00,2,,183
2012-3-11,56,42,28,47,37,26,92,79,66,29.82,29.72,29.60,10,10,7,23,12,30,0.00,1,,158
2012-3-12,56,46,35,43,39,29,100,77,54,29.82,29.59,29.51,10,8,3,25,11,35,0.19,6,Rain,214
2012-3-13,59,43,27,42,35,26,92,73,53,29.92,29.79,29.52,10,10,10,23,12,28,0.00,1,,166
2012-3-14,54,44,33,45,33,25,86,59,32,30.02,29.82,29.47,10,10,7,23,10,29,0.00,5,,309
2012-3-15,59,44,29,37,31,27,85,59,33,30.07,30.02,29.94,10,10,10,20,8,24,0.00,4,,180
2012-3-16,73,53,32,51,40,29,82,60,38,29.92,29.73,29.54,10,10,10,24,13,31,0.00,2,,163
2012-3-17,70,53,36,57,48,36,100,76,52,29.65,29.60,29.53,10,9,6,13,6,15,0.00,3,,120
2012-3-18,74,61,47,60,55,47,96,79,61,29.56,29.48,29.39,10,8,2,31,17,39,0.00,3,Fog,150
2012-3-19,74,64,54,62,57,50,86,75,64,29.50,29.43,29.37,10,9,1,30,16,43,0.14,5,Rain-Thunderstorm,166
2012-3-20,57,47,37,49,34,29,89,64,38,29.91,29.80,29.52,10,10,10,18,9,24,0.00,5,,250
2012-3-21,68,50,31,41,34,28,89,58,27,30.03,29.94,29.85,10,10,10,14,7,20,0.00,2,,183
2012-3-22,67,49,31,55,44,30,100,73,46,30.09,30.02,29.95,10,10,8,15,7,18,0.01,4,Rain,145
2012-3-23,60,56,52,56,54,52,100,92,84,29.95,29.91,29.89,10,4,0,7,3,9,0.55,8,Fog-Rain,69
2012-3-24,55,47,38,55,40,28,100,88,76,30.29,30.04,29.88,10,5,0,23,10,28,T,8,Fog,357
2012-3-25,40,34,28,27,23,19,78,64,50,30.39,30.34,30.30,10,10,10,18,10,22,0.00,5,,38
2012-3-26,51,40,29,35,28,23,72,57,42,30.30,30.00,29.60,10,10,10,33,19,40,0.00,6,,131
2012-3-27,48,42,35,45,37,32,89,78,67,29.88,29.54,29.27,10,10,3,25,15,31,0.09,8,Rain-Thunderstorm,270
2012-3-28,45,39,33,36,33,32,96,81,65,30.11,30.01,29.86,10,8,1,14,6,17,0.18,8,Rain-Snow,314
2012-3-29,42,38,34,40,37,32,100,91,82,30.08,29.88,29.78,10,6,0,28,10,33,0.38,8,Fog-Rain,121
2012-3-30,53,46,38,45,39,37,100,86,71,29.82,29.77,29.66,10,5,0,20,7,23,0.00,7,Fog,131
2012-3-31,68,57,46,48,44,38,93,64,34,29.66,29.63,29.57,10,8,3,23,9,32,0.00,5,,207